EW0152 Weather Reports


Display with metric or nautical units.
time (UTC)temp
F
wind
direction
speed
MPH
gust
MPH
rain 1hr
in
rain 24hr
in
rain mn
in
humidity
%
barometer
mb
20210923230556 74 0 0.0 2.0 0.00 0.00 0.00 84 1021.7
20210923230210 74 0 0.0 3.0 0.00 0.00 0.00 83 1021.7
20210923225603 74 0 0.0 3.0 0.00 0.00 0.00 83 1021.7
20210923225055 74 0 0.0 3.0 0.00 0.00 0.00 83 1021.7
20210923224647 74 0 0.0 3.0 0.00 0.00 0.00 83 1021.7
20210923224106 74 0 0.0 3.0 0.00 0.00 0.00 83 1021.5
20210923223639 74 0 0.0 3.0 0.00 0.00 0.00 82 1021.6
20210923223233 74 0 0.0 1.0 0.00 0.00 0.00 82 1021.5
20210923222603 75 0 0.0 4.0 0.00 0.00 0.00 82 1021.5
20210923222059 75 0 0.0 4.0 0.00 0.00 0.00 81 1021.5
20210923221624 75 0 0.0 4.0 0.00 0.00 0.00 81 1021.6
20210923221108 75 0 0.0 4.0 0.00 0.00 0.00 80 1021.5
20210923220610 75 0 0.0 2.0 0.00 0.00 0.00 80 1021.2
20210923220222 75 0 0.0 2.0 0.00 0.00 0.00 80 1021.2
20210923215602 75 0 0.0 4.0 0.00 0.00 0.00 79 1021.3
20210923215105 76 0 0.0 4.0 0.00 0.00 0.00 78 1021.2
20210923214813 76 0 0.0 3.0 0.00 0.00 0.00 78 1021.3
20210923214054 76 0 0.0 3.0 0.00 0.00 0.00 78 1021.2
20210923213601 76 0 0.0 3.0 0.00 0.00 0.00 78 1021.2
20210923213221 76 0 0.0 6.0 0.00 0.00 0.00 77 1021.2
20210923212555 76 0 0.0 6.0 0.00 0.00 0.00 76 1021.1
20210923212121 76 56 0.0 4.0 0.00 0.00 0.00 76 1021.1
20210923211634 76 0 0.0 3.0 0.00 0.00 0.00 75 1021.3
20210923211120 76 0 0.0 3.0 0.00 0.00 0.00 75 1021.2
20210923210608 77 0 0.0 4.0 0.00 0.00 0.00 74 1021.1
20210923210151 77 136 0.0 4.0 0.00 0.00 0.00 74 1021.2
20210923205554 77 0 0.0 4.0 0.00 0.00 0.00 74 1021.2
20210923205137 77 0 0.0 3.0 0.00 0.00 0.00 73 1021.2
20210923204705 77 0 0.0 4.0 0.00 0.00 0.00 72 1021.2
20210923204102 78 0 0.0 5.0 0.00 0.00 0.00 71 1021.2
20210923203617 78 160 0.0 5.0 0.00 0.00 0.00 69 1021.2
20210923203215 78 0 0.0 3.0 0.00 0.00 0.00 69 1021.2
20210923202603 78 0 0.0 2.0 0.00 0.00 0.00 68 1021.3
20210923202105 78 0 0.0 2.0 0.00 0.00 0.00 67 1021.2
20210923201741 78 0 0.0 5.0 0.00 0.00 0.00 66 1021.2
20210923201055 78 56 1.0 5.0 0.00 0.00 0.00 65 1021.3
20210923200608 78 0 1.0 5.0 0.00 0.00 0.00 64 1021.3
20210923200345 79 0 0.0 3.0 0.00 0.00 0.00 64 1021.2
20210923195614 79 130 0.0 5.0 0.00 0.00 0.00 64 1021.3
20210923195112 78 0 0.0 7.0 0.00 0.00 0.00 65 1021.2
20210923194725 79 103 1.0 7.0 0.00 0.00 0.00 64 1021.4
20210923194102 79 0 0.0 7.0 0.00 0.00 0.00 64 1021.3
20210923193614 79 157 1.0 7.0 0.00 0.00 0.00 65 1021.3
20210923193200 79 0 1.0 8.0 0.00 0.00 0.00 64 1021.3
20210923192554 79 0 1.0 8.0 0.00 0.00 0.00 66 1021.4
20210923192055 78 0 2.0 7.0 0.00 0.00 0.00 67 1021.3
20210923191626 78 121 1.0 7.0 0.00 0.00 0.00 68 1021.2
20210923191059 78 0 2.0 7.0 0.00 0.00 0.00 68 1021.3
20210923190610 78 0 0.0 6.0 0.00 0.00 0.00 69 1021.3
20210923190130 78 0 0.0 6.0 0.00 0.00 0.00 70 1021.2
20210923185556 78 0 1.0 6.0 0.00 0.00 0.00 69 1021.3
20210923185104 78 0 1.0 7.0 0.00 0.00 0.00 69 1021.5
20210923184717 79 82 0.0 7.0 0.00 0.00 0.00 71 1021.5
20210923184106 78 0 0.0 4.0 0.00 0.00 0.00 71 1021.4
20210923183557 78 0 0.0 5.0 0.00 0.00 0.00 73 1021.5
20210923183135 78 135 0.0 8.0 0.00 0.00 0.00 72 1021.6
20210923182554 77 146 1.0 10.0 0.00 0.00 0.00 72 1021.6
20210923182055 77 130 1.0 10.0 0.00 0.00 0.00 73 1021.8
20210923181732 77 0 0.0 3.0 0.00 0.00 0.00 75 1021.6
20210923181056 77 0 0.0 8.0 0.00 0.00 0.00 76 1021.6
20210923180555 77 0 0.0 10.0 0.00 0.00 0.00 75 1021.8
20210923180142 77 0 2.0 10.0 0.00 0.00 0.00 75 1021.8
20210923175610 77 0 0.0 4.0 0.00 0.00 0.00 78 1021.7
20210923175116 76 0 0.0 8.0 0.00 0.00 0.00 79 1021.8
20210923174641 76 0 1.0 8.0 0.00 0.00 0.00 80 1021.8
20210923174111 75 157 0.0 5.0 0.00 0.00 0.00 82 1021.9
20210923173608 75 0 0.0 1.0 0.00 0.00 0.00 85 1021.8
20210923173225 74 0 0.0 0.0 0.00 0.00 0.00 85 1022.1
20210923172604 74 0 0.0 0.0 0.00 0.00 0.00 85 1022.1
20210923172119 74 0 0.0 1.0 0.00 0.00 0.00 85 1022.2
20210923171700 74 0 0.0 1.0 0.00 0.00 0.00 86 1022.3
20210923171054 73 0 0.0 1.0 0.00 0.00 0.00 86 1022.3
20210923170605 73 0 0.0 2.0 0.00 0.00 0.00 87 1022.3
20210923170125 73 0 0.0 4.0 0.00 0.00 0.00 88 1022.3
20210923165553 72 0 0.0 7.0 0.00 0.00 0.00 88 1022.5
20210923165053 72 235 0.0 7.0 0.00 0.00 0.00 88 1022.6
20210923164647 72 0 1.0 7.0 0.00 0.00 0.00 88 1022.6
20210923164100 72 0 0.0 2.0 0.00 0.00 0.00 89 1022.7
20210923163558 73 0 0.0 2.0 0.00 0.00 0.00 88 1022.8
20210923163120 73 0 0.0 8.0 0.00 0.00 0.00 87 1022.7
20210923162646 74 0 0.0 9.0 0.00 0.00 0.00 83 1022.6
20210923162054 75 142 3.0 9.0 0.00 0.00 0.00 79 1022.7
20210923161749 76 0 0.0 7.0 0.00 0.00 0.00 76 1022.3
20210923161109 76 127 0.0 8.0 0.00 0.00 0.00 76 1022.1
20210923160600 76 105 2.0 8.0 0.00 0.00 0.00 75 1022.1
20210923160133 76 143 0.0 8.0 0.00 0.00 0.00 75 1022.1
20210923155602 76 0 1.0 8.0 0.00 0.00 0.00 75 1022.1
20210923155106 76 144 0.0 15.0 0.00 0.00 0.00 75 1022.1
20210923154648 76 151 5.0 15.0 0.00 0.00 0.00 74 1022.2
20210923154112 77 153 3.0 13.0 0.00 0.00 0.00 74 1022.3
20210923153600 77 63 1.0 5.0 0.00 0.00 0.00 73 1022.5
20210923153124 77 0 0.0 10.0 0.00 0.00 0.00 74 1022.2
20210923152609 77 0 2.0 10.0 0.00 0.00 0.00 73 1022.3
20210923152055 76 0 0.0 7.0 0.00 0.00 0.00 76 1022.2
20210923151647 76 0 2.0 7.0 0.00 0.00 0.00 75 1022.4
20210923151058 76 150 0.0 9.0 0.00 0.00 0.00 75 1022.3
20210923150554 76 0 2.0 9.0 0.00 0.00 0.00 75 1022.3
20210923150145 76 0 1.0 5.0 0.00 0.00 0.00 75 1022.5
20210923145557 77 0 1.0 8.0 0.00 0.00 0.00 75 1022.4
20210923145123 77 160 1.0 8.0 0.00 0.00 0.00 75 1022.3
20210923144615 77 125 0.0 9.0 0.00 0.00 0.00 76 1022.5
20210923144111 76 0 1.0 11.0 0.00 0.00 0.00 77 1022.5
20210923143555 76 0 0.0 11.0 0.00 0.00 0.00 78 1022.3
20210923143221 76 153 1.0 3.0 0.00 0.00 0.00 80 1022.5
20210923142604 76 0 0.0 4.0 0.00 0.00 0.00 81 1022.3
20210923142054 75 0 0.0 4.0 0.00 0.00 0.00 83 1022.4
20210923141624 75 0 0.0 6.0 0.00 0.00 0.00 83 1022.3
20210923141136 74 0 0.0 6.0 0.00 0.00 0.00 84 1022.3
20210923140600 74 0 1.0 6.0 0.00 0.00 0.00 84 1022.2
20210923140149 74 0 1.0 6.0 0.00 0.00 0.00 86 1022.2
20210923135611 73 0 0.0 3.0 0.00 0.00 0.00 87 1022.2
20210923135055 73 0 0.0 3.0 0.00 0.00 0.00 87 1022.1
20210923134718 73 234 0.0 7.0 0.00 0.00 0.00 88 1022.0
20210923134056 73 0 1.0 7.0 0.00 0.00 0.00 88 1022.1
20210923133604 72 0 0.0 2.0 0.00 0.00 0.00 89 1021.9
20210923133239 72 0 0.0 3.0 0.00 0.00 0.00 89 1021.9
20210923132558 72 0 0.0 4.0 0.00 0.00 0.00 90 1021.9
20210923132101 72 0 0.0 4.0 0.00 0.00 0.00 90 1021.9
20210923131719 72 343 0.0 3.0 0.00 0.00 0.00 91 1021.9
20210923131059 71 0 0.0 1.0 0.00 0.00 0.00 91 1022.0
20210923130608 71 0 0.0 3.0 0.00 0.00 0.00 92 1022.1
20210923130152 71 0 0.0 3.0 0.00 0.00 0.00 92 1022.0
20210923125639 71 0 0.0 1.0 0.00 0.00 0.00 93 1022.0
20210923125055 70 0 0.0 3.0 0.00 0.00 0.00 93 1022.0
20210923124728 70 0 0.0 3.0 0.00 0.00 0.00 94 1021.9
20210923124104 70 0 0.0 1.0 0.00 0.00 0.00 94 1021.9
20210923123558 70 0 0.0 2.0 0.00 0.00 0.00 95 1022.0
20210923123154 69 0 0.0 2.0 0.00 0.00 0.00 95 1021.9
20210923122615 69 0 0.0 2.0 0.00 0.00 0.00 95 1022.0
20210923122101 69 0 0.0 2.0 0.00 0.00 0.00 96 1022.0
20210923121657 68 0 0.0 0.0 0.00 0.00 0.00 96 1022.1
20210923121056 68 0 0.0 0.0 0.00 0.00 0.00 96 1022.1
20210923120559 68 0 0.0 0.0 0.00 0.00 0.00 96 1022.0
20210923120258 68 0 0.0 1.0 0.00 0.00 0.00 96 1022.0
20210923115605 68 0 0.0 1.0 0.00 0.00 0.00 96 1022.1
20210923115100 67 0 0.0 0.0 0.00 0.00 0.00 96 1022.1
20210923114631 67 0 0.0 2.0 0.00 0.00 0.00 96 1022.0
20210923114058 67 0 0.0 2.0 0.00 0.00 0.00 96 1022.0
20210923113609 67 0 0.0 1.0 0.00 0.00 0.00 96 1022.1
20210923113203 67 0 0.0 0.0 0.00 0.00 0.00 96 1022.0
20210923112607 66 0 0.0 0.0 0.00 0.00 0.00 96 1022.0
20210923112107 66 0 0.0 0.0 0.00 0.00 0.00 96 1022.1
20210923111643 66 0 0.0 0.0 0.00 0.00 0.00 96 1022.0
20210923111058 66 0 0.0 0.0 0.00 0.00 0.00 96 1022.1
20210923110607 66 0 0.0 0.0 0.00 0.00 0.00 95 1022.0
20210923110134 66 0 0.0 0.0 0.00 0.00 0.00 96 1022.0
20210923105557 66 0 0.0 0.0 0.00 0.00 0.00 95 1022.0
20210923105058 66 0 0.0 0.0 0.00 0.00 0.00 95 1022.2
20210923104646 66 0 0.0 0.0 0.00 0.00 0.00 95 1022.2
20210923104132 66 0 0.0 0.0 0.00 0.00 0.00 95 1022.2
20210923103604 66 0 0.0 0.0 0.00 0.00 0.00 95 1022.2
20210923103138 66 0 0.0 0.0 0.00 0.00 0.00 95 1022.2
20210923102604 66 0 0.0 0.0 0.00 0.00 0.00 95 1022.1
20210923102058 66 0 0.0 0.0 0.00 0.00 0.00 95 1022.0
20210923101636 66 0 0.0 0.0 0.00 0.00 0.00 95 1022.1
20210923101059 66 0 0.0 0.0 0.00 0.00 0.00 95 1022.1
20210923100556 67 0 0.0 0.0 0.00 0.00 0.00 95 1022.1
20210923100247 67 0 0.0 0.0 0.00 0.00 0.00 95 1022.1
20210923095555 67 0 0.0 0.0 0.00 0.00 0.00 95 1022.1
20210923095104 67 0 0.0 0.0 0.00 0.00 0.00 95 1022.1
20210923094658 67 0 0.0 0.0 0.00 0.00 0.00 94 1022.2
20210923094058 67 0 0.0 0.0 0.00 0.00 0.00 94 1022.1
20210923093554 67 0 0.0 0.0 0.00 0.00 0.00 94 1022.1
20210923093106 67 0 0.0 0.0 0.00 0.00 0.00 95 1022.1
20210923092610 67 0 0.0 0.0 0.00 0.00 0.00 95 1022.2
20210923092053 67 0 0.0 0.0 0.00 0.00 0.00 95 1022.2
20210923091619 67 0 0.0 0.0 0.00 0.00 0.00 95 1022.2
20210923091105 67 0 0.0 0.0 0.00 0.00 0.00 95 1022.2
20210923090604 67 0 0.0 0.0 0.00 0.00 0.00 95 1022.2
20210923090226 67 0 0.0 0.0 0.00 0.00 0.00 95 1022.2
20210923085610 67 0 0.0 0.0 0.00 0.00 0.00 95 1022.1
20210923085058 67 0 0.0 0.0 0.00 0.00 0.00 95 1022.1
20210923084703 67 0 0.0 0.0 0.00 0.00 0.00 95 1022.2
20210923084135 67 0 0.0 0.0 0.00 0.00 0.00 95 1022.1
20210923083603 67 0 0.0 0.0 0.00 0.00 0.00 95 1022.2
20210923083212 67 0 0.0 0.0 0.00 0.00 0.00 95 1022.2
20210923082610 67 0 0.0 0.0 0.00 0.00 0.00 95 1022.2
20210923082102 67 0 0.0 2.0 0.00 0.00 0.00 95 1022.2
20210923081703 67 0 0.0 2.0 0.00 0.00 0.00 95 1022.1
20210923081103 67 0 0.0 0.0 0.00 0.00 0.00 95 1022.1
20210923080554 67 0 0.0 0.0 0.00 0.00 0.00 95 1022.1
20210923080127 67 0 0.0 0.0 0.00 0.00 0.00 95 1022.2
20210923075553 67 0 0.0 0.0 0.00 0.00 0.00 95 1022.2
20210923075055 67 0 0.0 0.0 0.00 0.00 0.00 95 1022.2
20210923074614 67 0 0.0 0.0 0.00 0.00 0.00 95 1022.2
20210923074054 66 0 0.0 0.0 0.00 0.00 0.00 95 1022.3
20210923073552 66 0 0.0 0.0 0.00 0.00 0.00 95 1022.3
20210923073126 66 0 0.0 0.0 0.00 0.00 0.00 95 1022.4
20210923072556 66 0 0.0 0.0 0.00 0.00 0.00 95 1022.3
20210923072054 66 0 0.0 0.0 0.00 0.00 0.00 95 1022.4
20210923071615 66 0 0.0 0.0 0.00 0.00 0.00 95 1022.4
20210923071054 66 0 0.0 0.0 0.00 0.00 0.00 95 1022.4
20210923070556 66 0 0.0 0.0 0.00 0.00 0.00 95 1022.4
20210923070214 66 0 0.0 0.0 0.00 0.00 0.00 95 1022.4
20210923065552 66 0 0.0 0.0 0.00 0.00 0.00 95 1022.4
20210923065057 66 0 0.0 0.0 0.00 0.00 0.00 94 1022.4
20210923064609 66 0 0.0 0.0 0.00 0.00 0.00 94 1022.5
20210923064058 66 0 0.0 0.0 0.00 0.00 0.00 94 1022.4
20210923063554 66 0 0.0 0.0 0.00 0.00 0.00 94 1022.4
20210923063138 66 0 0.0 0.0 0.00 0.00 0.00 94 1022.5
20210923062556 66 0 0.0 0.0 0.00 0.00 0.00 94 1022.5
20210923062112 66 0 0.0 0.0 0.00 0.00 0.00 94 1022.5
20210923061641 66 0 0.0 0.0 0.00 0.00 0.00 94 1022.5
20210923061114 66 0 0.0 0.0 0.00 0.00 0.00 94 1022.6
20210923060557 66 0 0.0 0.0 0.00 0.00 0.00 94 1022.7
20210923060152 66 0 0.0 0.0 0.00 0.00 0.00 94 1022.7
20210923055555 66 0 0.0 0.0 0.00 0.00 0.00 94 1022.7
20210923055055 66 0 0.0 0.0 0.00 0.00 0.00 94 1022.7
20210923054600 66 0 0.0 0.0 0.00 0.00 0.00 95 1022.7
20210923054057 66 0 0.0 0.0 0.00 0.00 0.00 95 1022.8
20210923053618 66 0 0.0 0.0 0.00 0.00 0.00 95 1022.8
20210923053208 66 0 0.0 0.0 0.00 0.00 0.00 95 1022.9
20210923052600 66 0 0.0 0.0 0.00 0.00 0.00 95 1022.9
20210923052136 66 0 0.0 0.0 0.00 0.00 0.00 95 1022.9
20210923051628 66 0 0.0 0.0 0.00 0.00 0.00 95 1022.9
20210923051106 66 0 0.0 0.0 0.00 0.00 0.00 95 1022.9
20210923050557 66 0 0.0 0.0 0.00 0.00 0.00 95 1022.9
20210923050204 66 0 0.0 0.0 0.00 0.00 0.00 95 1023.0
20210923045555 66 0 0.0 0.0 0.00 0.00 0.00 95 1023.0
20210923045058 66 0 0.0 0.0 0.00 0.00 0.00 95 1023.0
20210923044719 66 0 0.0 0.0 0.00 0.00 0.00 95 1023.1
20210923044056 66 0 0.0 0.0 0.00 0.00 0.00 95 1023.1
20210923043637 66 0 0.0 0.0 0.00 0.00 0.00 95 1023.0
20210923043239 66 0 0.0 0.0 0.00 0.00 0.00 94 1023.0
20210923042605 66 0 0.0 0.0 0.00 0.00 0.00 94 1023.0
20210923042056 66 0 0.0 0.0 0.00 0.00 0.00 94 1023.0
20210923041656 66 0 0.0 0.0 0.00 0.00 0.00 94 1023.0
20210923041104 66 0 0.0 0.0 0.00 0.00 0.00 94 1023.2
20210923040615 66 0 0.0 0.0 0.00 0.00 0.00 94 1023.2
20210923040227 66 0 0.0 0.0 0.00 0.00 0.00 94 1023.1
20210923035601 66 0 0.0 0.0 0.00 0.00 0.00 94 1023.1
20210923035057 66 0 0.0 0.0 0.00 0.00 0.00 94 1023.0
20210923034639 67 0 0.0 0.0 0.00 0.00 0.00 93 1023.1
20210923034055 67 0 0.0 0.0 0.00 0.00 0.00 93 1023.1
20210923033557 67 0 0.0 0.0 0.00 0.00 0.00 93 1023.2
20210923033134 67 0 0.0 0.0 0.00 0.00 0.00 93 1023.1
20210923032614 67 0 0.0 0.0 0.00 0.00 0.00 93 1023.0
20210923032056 67 0 0.0 0.0 0.00 0.00 0.00 93 1023.0
20210923031733 67 0 0.0 0.0 0.00 0.00 0.00 93 1023.0
20210923031058 67 0 0.0 0.0 0.00 0.00 0.00 92 1023.1
20210923030557 67 0 0.0 0.0 0.00 0.00 0.00 92 1023.0
20210923030131 68 0 0.0 0.0 0.00 0.00 0.00 92 1023.1
20210923025604 68 0 0.0 0.0 0.00 0.00 0.00 92 1023.1
20210923025057 68 0 0.0 0.0 0.00 0.00 0.00 92 1023.1
20210923024708 68 0 0.0 0.0 0.00 0.00 0.00 92 1023.2
20210923024101 68 0 0.0 0.0 0.00 0.00 0.00 92 1023.2
20210923023609 69 0 0.0 0.0 0.00 0.00 0.00 91 1023.2
20210923023124 69 0 0.0 0.0 0.00 0.00 0.00 92 1023.2
20210923022639 69 0 0.0 0.0 0.00 0.00 0.00 92 1023.1
20210923022057 69 0 0.0 0.0 0.00 0.00 0.00 91 1023.1
20210923021714 69 0 0.0 0.0 0.00 0.00 0.00 91 1023.2
20210923021105 69 0 0.0 0.0 0.00 0.00 0.00 91 1023.2
20210923020610 69 0 0.0 0.0 0.00 0.00 0.00 91 1023.1
20210923020219 69 0 0.0 0.0 0.00 0.00 0.00 91 1023.1
20210923015555 69 0 0.0 1.0 0.00 0.00 0.00 91 1023.1
20210923015102 69 0 0.0 1.0 0.00 0.00 0.00 91 1023.1
20210923014657 70 0 0.0 0.0 0.00 0.00 0.00 91 1023.1
20210923014056 70 0 0.0 0.0 0.00 0.00 0.00 91 1023.1
20210923013601 70 0 0.0 0.0 0.00 0.00 0.00 91 1023.1
20210923013118 70 0 0.0 0.0 0.00 0.00 0.00 91 1023.2
20210923012606 70 0 0.0 0.0 0.00 0.00 0.00 90 1023.1
20210923012056 70 0 0.0 1.0 0.00 0.00 0.00 90 1023.1
20210923011741 70 0 0.0 1.0 0.00 0.00 0.00 90 1023.1
20210923011059 70 0 0.0 0.0 0.00 0.00 0.00 90 1023.1
20210923010559 70 0 0.0 0.0 0.00 0.00 0.00 90 1023.1
20210923010138 70 0 0.0 0.0 0.00 0.00 0.00 90 1023.1
20210923005605 70 0 0.0 1.0 0.00 0.00 0.00 90 1023.0
20210923005101 70 0 0.0 1.0 0.00 0.00 0.00 90 1022.9
20210923004659 70 0 0.0 2.0 0.00 0.00 0.00 89 1023.0
20210923004129 70 0 0.0 2.0 0.00 0.00 0.00 89 1023.1
20210923003558 70 138 0.0 2.0 0.00 0.00 0.00 89 1023.1
20210923003133 71 0 0.0 2.0 0.00 0.00 0.00 89 1023.0
20210923002556 71 0 0.0 0.0 0.00 0.00 0.00 89 1023.0
20210923002117 71 0 0.0 2.0 0.00 0.00 0.00 88 1023.0
20210923001620 71 0 0.0 2.0 0.00 0.00 0.00 88 1023.1
20210923001104 71 0 0.0 0.0 0.00 0.00 0.00 88 1022.9
20210923000559 71 0 0.0 3.0 0.00 0.00 0.00 88 1022.9
20210923000148 71 0 0.0 3.0 0.00 0.00 0.00 87 1022.9
20210922235556 71 0 0.0 2.0 0.00 0.00 0.00 87 1023.0
20210922235055 71 0 0.0 2.0 0.00 0.00 0.00 87 1022.9
20210922234655 71 0 0.0 0.0 0.00 0.00 0.00 87 1022.8
20210922234106 71 0 0.0 1.0 0.00 0.00 0.00 87 1022.8
20210922233559 71 0 0.0 3.0 0.00 0.00 0.00 87 1022.7
20210922233205 71 0 0.0 3.0 0.00 0.00 0.00 86 1022.8
20210922232555 72 0 0.0 2.0 0.00 0.00 0.00 86 1022.7
20210922232129 72 0 0.0 2.0 0.00 0.00 0.00 86 1022.7
20210922231626 72 0 0.0 4.0 0.00 0.00 0.00 86 1022.7
20210922231059 72 0 0.0 4.0 0.00 0.00 0.00 86 1022.7